Location: Amon Carter Post Office
(32.8281°N, 97.0484°W)
Time: 10:16:16
(UTC+00:00)

Sich 1 - Pass Details

Date: 11 July 2022
Orbit: 593 x 623 km, 82.5° (Epoch: 09 August)

Event Time Altitude Azimuth Distance (km) Brightness Sun altitude
Exits shadow 09:04:39 68° 326° (NW) 646 3.1 -24.3°
Drops below altitude 10° 09:08:30 10° 3° (N) 1,933 6.3 -23.8°
Sets 09:10:43 0° 5° (N) 2,837 7.3 -23.5°
